Location: Newark
(42.8481°N, 0.4872°E)
Time: 23:47:49
(UTC+00:00)

Vanguard 1 - Pass Details

Date: 04 November 2020
Orbit: 650 x 3833 km, 34.2° (Epoch: 29 November)

Event Time Altitude Azimuth Distance (km) Brightness Sun altitude
Rises 09:17:07 0° 212° (SSW) 5,965 14.3 22.8°
Reaches altitude 10° 09:20:53 10° 204° (SSW) 5,342 14.3 23.2°
Maximum altitude 09:36:28 40° 142° (SE) 4,485 15.3 24.9°
Drops below altitude 10° 09:56:46 10° 83° (E) 6,914 14.7 26.8°
Sets 10:02:29 0° 77° (ENE) 7,821 14.8 27.3°
